| time (UTC) | temp C | wind direction | speed KPH | gust KPH | rain 1hr cm | rain 24hr cm | rain mn cm | humidity % | barometer mb |
| 20260505014540 | 12 | 190 | 1.6 | 4.8 | 0.00 | 0.00 | 0.00 | 72 | 1007.6 |
| 20260505013042 | 11 | 212 | 0.0 | 4.8 | 0.00 | 0.00 | 0.00 | 73 | 1007.5 |
| 20260505011545 | 12 | 0 | 0.0 | 6.4 | 0.00 | 0.00 | 0.00 | 72 | 1007.3 |
| 20260505010054 | 12 | 51 | 0.0 | 6.4 | 0.00 | 0.00 | 0.00 | 70 | 1007.1 |
| 20260505004555 | 13 | 178 | 1.6 | 4.8 | 0.00 | 0.00 | 0.00 | 65 | 1006.9 |
| 20260505003034 | 15 | 360 | 0.0 | 3.2 | 0.00 | 0.00 | 0.00 | 55 | 1006.5 |
| 20260505001545 | 17 | 0 | 0.0 | 0.0 | 0.00 | 0.00 | 0.00 | 41 | 1006.0 |
| 20260505000045 | 18 | 0 | 0.0 | 0.0 | 0.00 | 0.00 | 0.00 | 41 | 1005.8 |
| 20260504234541 | 19 | 0 | 0.0 | 1.6 | 0.00 | 0.00 | 0.00 | 37 | 1005.6 |
| 20260504233040 | 20 | 0 | 0.0 | 4.8 | 0.00 | 0.00 | 0.00 | 34 | 1005.4 |
| 20260504231540 | 21 | 306 | 0.0 | 8.0 | 0.00 | 0.00 | 0.00 | 32 | 1005.1 |
| 20260504230037 | 21 | 0 | 0.0 | 8.0 | 0.00 | 0.00 | 0.00 | 31 | 1005.0 |
| 20260504224545 | 21 | 0 | 3.2 | 12.9 | 0.00 | 0.00 | 0.00 | 31 | 1004.7 |
| 20260504223046 | 21 | 258 | 6.4 | 19.3 | 0.00 | 0.00 | 0.00 | 31 | 1004.7 |
| 20260504221556 | 21 | 0 | 1.6 | 8.0 | 0.00 | 0.00 | 0.00 | 32 | 1004.5 |
| 20260504220039 | 21 | 244 | 3.2 | 12.9 | 0.00 | 0.00 | 0.00 | 31 | 1004.6 |
| 20260504214537 | 21 | 263 | 0.0 | 6.4 | 0.00 | 0.00 | 0.00 | 32 | 1004.7 |
| 20260504213045 | 21 | 257 | 4.8 | 11.3 | 0.00 | 0.00 | 0.00 | 31 | 1004.7 |
| 20260504211540 | 22 | 248 | 3.2 | 12.9 | 0.00 | 0.00 | 0.00 | 30 | 1004.8 |
| 20260504210046 | 22 | 253 | 1.6 | 24.1 | 0.00 | 0.00 | 0.00 | 30 | 1004.6 |
| 20260504204537 | 22 | 210 | 4.8 | 17.7 | 0.00 | 0.00 | 0.00 | 30 | 1004.6 |
| 20260504203047 | 22 | 265 | 6.4 | 20.9 | 0.00 | 0.00 | 0.00 | 29 | 1004.7 |
| 20260504201545 | 22 | 327 | 9.7 | 30.6 | 0.00 | 0.00 | 0.00 | 29 | 1004.7 |
| 20260504200041 | 22 | 243 | 4.8 | 16.1 | 0.00 | 0.00 | 0.00 | 28 | 1004.7 |
| 20260504194549 | 22 | 292 | 3.2 | 14.5 | 0.00 | 0.00 | 0.00 | 31 | 1004.7 |
| 20260504193045 | 22 | 255 | 4.8 | 19.3 | 0.00 | 0.00 | 0.00 | 29 | 1004.7 |
| 20260504191601 | 21 | 261 | 6.4 | 17.7 | 0.00 | 0.00 | 0.00 | 31 | 1004.8 |
| 20260504190045 | 21 | 283 | 4.8 | 17.7 | 0.00 | 0.00 | 0.00 | 31 | 1004.8 |
| 20260504184555 | 20 | 223 | 6.4 | 22.5 | 0.00 | 0.00 | 0.00 | 31 | 1005.0 |
| 20260504183043 | 21 | 274 | 9.7 | 25.7 | 0.00 | 0.00 | 0.00 | 28 | 1004.9 |
| 20260504181541 | 21 | 253 | 6.4 | 20.9 | 0.00 | 0.00 | 0.00 | 29 | 1004.7 |
| 20260504180038 | 21 | 238 | 6.4 | 20.9 | 0.00 | 0.00 | 0.00 | 28 | 1004.7 |
| 20260504174535 | 21 | 252 | 6.4 | 16.1 | 0.00 | 0.00 | 0.00 | 30 | 1004.8 |
| 20260504173044 | 21 | 264 | 6.4 | 12.9 | 0.00 | 0.00 | 0.00 | 29 | 1004.8 |
| 20260504171545 | 20 | 246 | 6.4 | 16.1 | 0.00 | 0.00 | 0.00 | 31 | 1004.8 |
| 20260504081540 | 3 | 281 | 0.0 | 4.8 | 0.00 | 0.00 | 0.00 | 75 | 1008.5 |
| 20260504080121 | 2 | 0 | 0.0 | 1.6 | 0.00 | 0.00 | 0.00 | 86 | 1008.5 |
| 20260504044536 | 0 | 0 | 0.0 | 1.6 | 0.00 | 0.00 | 0.00 | 85 | 1008.5 |
| 20260504043037 | 1 | 0 | 0.0 | 1.6 | 0.00 | 0.00 | 0.00 | 83 | 1008.5 |
| 20260504041541 | 1 | 0 | 0.0 | 1.6 | 0.00 | 0.00 | 0.00 | 82 | 1008.4 |
| 20260504040041 | 1 | 0 | 0.0 | 0.0 | 0.00 | 0.00 | 0.00 | 81 | 1008.3 |
| 20260504034535 | 1 | 0 | 0.0 | 0.0 | 0.00 | 0.00 | 0.00 | 81 | 1008.1 |
| 20260504033044 | 1 | 0 | 0.0 | 0.0 | 0.00 | 0.00 | 0.00 | 79 | 1008.0 |
| 20260504031534 | 2 | 0 | 0.0 | 0.0 | 0.00 | 0.00 | 0.00 | 78 | 1008.0 |
| 20260504030106 | 2 | 0 | 0.0 | 1.6 | 0.00 | 0.00 | 0.00 | 78 | 1007.9 |
| 20260504024544 | 2 | 0 | 0.0 | 1.6 | 0.00 | 0.03 | 0.00 | 76 | 1007.9 |
| 20260504023039 | 3 | 0 | 0.0 | 0.0 | 0.00 | 0.03 | 0.00 | 74 | 1008.0 |
| 20260504021547 | 3 | 0 | 0.0 | 0.0 | 0.00 | 0.03 | 0.00 | 73 | 1007.8 |
| 20260504020034 | 4 | 0 | 0.0 | 0.0 | 0.00 | 0.03 | 0.00 | 71 | 1007.9 |